Simultaneous Nadir Overpasses (SNOs) Predictions

Prediction of SNOs between GOES-15 and NOAA-20 Satellite Orbit:

Table of predicted SNOs for the next 14.0 days since TLE Epoch: 2/19/2022
Index Date Time (GOES-15) GOES-15 Lat,Lon NOAA-20 Lat,Lon Distance(km) Time Diff (sec)
1 02/19/2022 09:46:15 0.01,-127.86 -0.45,-125.72 244.16 80
2 02/20/2022 22:08:13 -0.01,-127.83 -0.74,-131.02 363.85 80
3 02/21/2022 21:52:10 -0.01,-127.80 0.28,-126.50 148.61 80
4 02/23/2022 10:13:59 0.01,-127.73 0.91,-131.77 460.17 80
5 02/24/2022 09:52:36 0.01,-127.69 -0.11,-127.24 51.49 80
6 02/26/2022 21:55:49 -0.01,-127.60 -0.11,-128.01 46.91 80
7 02/27/2022 21:39:46 -0.01,-127.56 0.90,-123.48 464.58 80
8 03/01/2022 10:01:35 0.02,-127.48 0.28,-128.75 145.10 80
9 03/02/2022 09:40:12 0.01,-127.43 -0.74,-124.23 366.17 80
10 03/03/2022 22:02:09 -0.02,-127.38 -0.49,-129.52 244.15 80
11 03/04/2022 21:46:06 -0.01,-127.34 0.53,-125.00 267.36 80
